Location: �perlecques
(50.8057°N, 2.1521°E)
Time: 17:43:17
(UTC+00:00)

KKS-1 - Pass Details

Date: 03 April 2023
Orbit: 633 x 644 km, 98.2° (Epoch: 03 June)

Event Time Altitude Azimuth Distance (km) Brightness Sun altitude
Rises 00:18:27 0° 0° (N) 2,944 ? -33.8°
Reaches altitude 10° 00:21:39 10° 335° (NNW) 2,030 ? -33.8°
Enters shadow 00:23:09 13° 315° (NW) 1,819 ? -33.7°
